Tracking 28790 objects as of 19-Apr-2024
HD Live streaming from Space Station
objects crossing your sky now

OPS 6911 (VELA 10)

Track OPS 6911 (VELA 10) now!
OPS 6911 (VELA 10) is classified as:


NORAD ID: 3955
Int'l Code: 1969-046E
Perigee: 11,283.3 km
Apogee: 212,286.7 km
Inclination: 34.3 °
Period: 6,736.6 minutes
Semi major axis: 118155 km
RCS: 0.31 m2 (medium)
Launch date: May 23, 1969
Source: United States (US)
Launch site: AIR FORCE EASTERN TEST RANGE (AFETR)
Your satellite tracking list
Your tracking list is empty




NASA's NSSDC Master Catalog

Two Line Element Set (TLE):
1 03955U 69046E   24105.44078525 -.00000639  00000-0  00000-0 0  9993
2 03955  34.3121 112.7933 8505845 114.4265 359.4801  0.21375648  5306
Source of the keplerian elements: AFSPC